Mount Airy, NC

5:03 PM EST on December 08, 2019 (GMT -0500)
Mount Airy-Surry County

Weather History for KMWK - June, 2019

Change the Weather History Date:

Thursday, June 13, 2019

  Actual Average (KINT) Record (KINT)
Temperature  
Mean Temperature 68 °F -  
Max Temperature 77 °F 81 °F 93 °F (1989)
Min Temperature 59 °F 63 °F 45 °F (1972)
Cooling Degree Days 3    
Growing Degree Days 18 (Base 50)    
Moisture  
Dew Point 54 °F    
Average Humidity 67    
Maximum Humidity 92    
Minimum Humidity 31    
Precipitation  
Precipitation 0.00 in - - ()
Sea Level Pressure  
Sea Level Pressure 29.92 in    
Wind  
Wind Speed 3 mph ()    
Max Wind Speed 15 mph    
Max Gust Speed 24 mph    
Visibility 8.8 miles    
Events      
Averages and records for this station are not official NWS values.
T = Trace of Precipitation, MM = Missing Value Source: Averaged Metar Reports

Daily Weather History Graph

Daily Weather History Graph

Search for Another Location

Airport or City:

Astronomy

Jun. 13, 2019 Rise Set
Actual Time 6:03 AM EDT 8:41 PM EDT
Civil Twilight 5:33 AM EDT 9:11 PM EDT
Nautical Twilight 4:55 AM EDT 9:49 PM EDT
Astronomical Twilight 4:13 AM EDT 10:31 PM EDT
Moon 5:00 PM EDT (6/13) 3:40 AM EDT (6/13)
Length of Visible Light 15h 38m
Length of Day
14h 37m
Waxing Gibbous, 85% of the Moon is Illuminated
Jun 13
Waxing Gibbous
Jun 17
Full
Jun 25
Last Quarter
Jul 2
New
Jul 9
First Quarter

Hourly Weather History & Observations

Time (EDT) Temp. Dew Point Humidity Pressure Visibility Wind Dir Wind Speed Gust Speed Precip Events Conditions
12:00 AM 59.5 °F 57.0 °F 91% 29.99 in 4.0 mi Calm Calm - N/A   Drizzle
12:20 AM 59.4 °F 56.8 °F 91% 29.97 in 4.0 mi Calm Calm - N/A   Drizzle
12:40 AM 59.5 °F 57.2 °F 92% 29.96 in 5.0 mi Calm Calm - N/A   Overcast
1:00 AM 59.4 °F 56.8 °F 91% 29.96 in 4.0 mi Calm Calm - N/A   Overcast
1:20 AM 59.4 °F 56.8 °F 91% 29.95 in 4.0 mi Calm Calm - N/A   Overcast
1:40 AM 59.2 °F 56.7 °F 91% 29.93 in 4.0 mi Calm Calm - N/A   Overcast
2:00 AM 59.2 °F 56.7 °F 91% 29.93 in 4.0 mi Calm Calm - N/A   Overcast
2:20 AM 59.7 °F 57.2 °F 91% 29.92 in 4.0 mi Calm Calm - N/A   Overcast
2:40 AM 59.7 °F 57.2 °F 91% 29.90 in 5.0 mi Calm Calm - N/A   Overcast
3:00 AM 59.5 °F 57.2 °F 92% 29.90 in 10.0 mi Calm Calm - N/A   Overcast
3:20 AM 59.9 °F 57.2 °F 91% 29.89 in 10.0 mi Calm Calm - N/A   Overcast
3:40 AM 59.9 °F 57.2 °F 91% 29.89 in 10.0 mi Calm Calm - N/A   Overcast
4:00 AM 59.9 °F 57.2 °F 91% 29.88 in 5.0 mi Calm Calm - N/A   Overcast
4:20 AM 59.9 °F 57.2 °F 91% 29.88 in 4.0 mi Calm Calm - N/A   Overcast
4:40 AM 59.9 °F 57.2 °F 91% 29.88 in 5.0 mi Calm Calm - N/A   Overcast
5:00 AM 59.9 °F 57.2 °F 91% 29.89 in 5.0 mi Calm Calm - N/A   Overcast
5:20 AM 59.9 °F 57.4 °F 91% 29.89 in 4.0 mi Calm Calm - N/A   Overcast
5:40 AM 60.1 °F 57.4 °F 91% 29.89 in 7.0 mi Calm Calm - N/A   Overcast
6:00 AM 60.1 °F 57.4 °F 91% 29.89 in 10.0 mi Calm Calm - N/A   Overcast
6:20 AM 60.1 °F 57.4 °F 91% 29.90 in 10.0 mi Calm Calm - N/A   Overcast
6:40 AM 60.3 °F 57.6 °F 91% 29.91 in 10.0 mi WSW 3.5 mph - N/A   Overcast
7:00 AM 60.3 °F 57.7 °F 91% 29.91 in 10.0 mi WSW 3.5 mph - N/A   Overcast
7:20 AM 60.1 °F 57.6 °F 91% 29.91 in 7.0 mi Calm Calm - N/A   Overcast
8:00 AM 60.8 °F 58.1 °F 91% 29.91 in 10.0 mi Calm Calm - N/A   Overcast
8:20 AM - - N/A% - - North - - N/A   Unknown
8:40 AM 62.8 °F 60.1 °F 91% 29.90 in 10.0 mi SSW 3.5 mph - N/A   Clear
9:00 AM 63.3 °F 60.1 °F 89% 29.90 in 10.0 mi SW 5.8 mph - N/A   Scattered Clouds
9:20 AM 64.9 °F 61.5 °F 89% 29.90 in 10.0 mi SSE 3.5 mph - N/A   Mostly Cloudy
9:40 AM 65.1 °F 61.0 °F 86% 29.90 in 10.0 mi SSW 4.6 mph - N/A   Mostly Cloudy
10:00 AM 65.8 °F 61.5 °F 86% 29.90 in 10.0 mi Calm Calm - N/A   Scattered Clouds
10:20 AM 66.9 °F 62.1 °F 84% 29.90 in 10.0 mi WSW 3.5 mph - N/A   Mostly Cloudy
10:40 AM 69.1 °F 63.0 °F 81% 29.90 in 10.0 mi South 4.6 mph - N/A   Mostly Cloudy
11:00 AM 69.8 °F 63.0 °F 79% 29.90 in 10.0 mi South 3.5 mph - N/A   Scattered Clouds
11:20 AM 70.0 °F 62.2 °F 76% 29.89 in 10.0 mi SSW 4.6 mph - N/A   Scattered Clouds
11:40 AM 72.5 °F 63.5 °F 73% 29.89 in 10.0 mi Calm Calm - N/A   Scattered Clouds
12:00 PM 72.5 °F 63.7 °F 74% 29.89 in 10.0 mi SSW 5.8 mph - N/A   Mostly Cloudy
12:20 PM 73.4 °F 63.0 °F 70% 29.88 in 10.0 mi South 6.9 mph - N/A   Scattered Clouds
12:40 PM 74.8 °F 60.6 °F 61% 29.88 in 10.0 mi SSW 4.6 mph - N/A   Scattered Clouds
1:00 PM 73.8 °F 60.3 °F 63% 29.88 in 10.0 mi SSW 6.9 mph - N/A   Clear
1:20 PM 76.1 °F 61.5 °F 60% 29.88 in 10.0 mi WSW 5.8 mph - N/A   Clear
1:40 PM 71.1 °F 56.3 °F 60% 29.90 in 10.0 mi West 5.8 mph 17.3 mph N/A   Mostly Cloudy
2:00 PM 73.0 °F 58.6 °F 61% 29.90 in 10.0 mi NW 5.8 mph - N/A   Scattered Clouds
2:20 PM 73.6 °F 58.8 °F 60% 29.89 in 10.0 mi WNW 6.9 mph - N/A   Clear
2:40 PM 75.0 °F 59.2 °F 58% 29.89 in 10.0 mi West 9.2 mph - N/A   Clear
3:00 PM 75.9 °F 57.2 °F 52% 29.89 in 10.0 mi WSW 11.5 mph 19.6 mph N/A   Scattered Clouds
3:20 PM 76.1 °F 55.4 °F 49% 29.89 in 10.0 mi WSW 13.8 mph 19.6 mph N/A   Clear
3:40 PM 77.2 °F 54.7 °F 46% 29.89 in 10.0 mi West 9.2 mph 16.1 mph N/A   Clear
4:00 PM 77.4 °F 55.6 °F 47% 29.89 in 10.0 mi West 8.1 mph - N/A   Scattered Clouds
4:20 PM 77.5 °F 51.3 °F 40% 29.89 in 10.0 mi West 15.0 mph 20.7 mph N/A   Clear
4:40 PM 77.5 °F 47.5 °F 35% 29.90 in 10.0 mi West 12.7 mph 21.9 mph N/A   Clear
5:00 PM 77.4 °F 44.2 °F 31% 29.90 in 10.0 mi WSW 12.7 mph 21.9 mph N/A   Clear
5:20 PM 77.4 °F 44.6 °F 31% 29.90 in 10.0 mi West 8.1 mph 24.2 mph N/A   Clear
5:40 PM 76.3 °F 47.7 °F 36% 29.90 in 10.0 mi West 10.4 mph 18.4 mph N/A   Scattered Clouds
6:00 PM 76.1 °F 47.1 °F 36% 29.91 in 10.0 mi West 10.4 mph - N/A   Clear
6:20 PM 76.1 °F 45.5 °F 34% 29.92 in 10.0 mi West 10.4 mph 18.4 mph N/A   Clear
6:40 PM 75.2 °F 47.1 °F 37% 29.93 in 10.0 mi West 10.4 mph 17.3 mph N/A   Clear
7:00 PM 74.5 °F 46.8 °F 37% 29.94 in 10.0 mi WNW 6.9 mph - N/A   Clear
7:20 PM 73.6 °F 46.0 °F 37% 29.95 in 10.0 mi West 6.9 mph - N/A   Clear
7:40 PM 72.7 °F 43.7 °F 35% 29.96 in 10.0 mi West 8.1 mph - N/A   Clear
8:00 PM 71.6 °F 44.2 °F 37% 29.96 in 10.0 mi West 5.8 mph - N/A   Clear
8:20 PM 70.7 °F 44.4 °F 39% 29.97 in 10.0 mi West 5.8 mph - N/A   Clear
8:40 PM 69.8 °F 44.2 °F 40% 29.97 in 10.0 mi West 6.9 mph - N/A   Clear
9:00 PM 69.6 °F 43.2 °F 38% 29.98 in 10.0 mi West 6.9 mph - N/A   Clear
9:20 PM 68.0 °F 44.6 °F 43% 29.99 in 10.0 mi West 4.6 mph - N/A   Clear
9:40 PM 67.5 °F 44.6 °F 44% 30.00 in 10.0 mi West 5.8 mph - N/A   Clear
10:00 PM 66.6 °F 44.6 °F 45% 30.02 in 10.0 mi WSW 4.6 mph - N/A   Clear
10:20 PM 65.5 °F 45.5 °F 48% 30.03 in 10.0 mi WSW 3.5 mph - N/A   Clear
10:40 PM 64.6 °F 46.2 °F 51% 30.04 in 10.0 mi West 3.5 mph - N/A   Clear
11:00 PM 64.6 °F 46.0 °F 51% 30.05 in 10.0 mi Calm Calm - N/A   Clear
11:20 PM 64.4 °F 45.7 °F 51% 30.06 in 10.0 mi Calm Calm - N/A   Clear
11:40 PM 63.0 °F 45.9 °F 54% 30.07 in 10.0 mi NW 5.8 mph - N/A   Unknown